QFA115 YPPH-YSHK

Flight info

Callsign QFA115
Flight time N/A
Altitude 20000
Route AVNEX H16 GEL W294 VIBID
Aircraft DH8D/M-SDE2E3FGRY/H

Departure

Time 2026-05-05 08:51
Airport Perth International Airport (YPPH)

Arrival

Time N/A
Airport Shark Bay Airport (YSHK)
Time Latitude Longitude Altitude Speed Heading
2026-05-05 08:23 -31.94025 115.96963 79 ft 0 kts 198°
2026-05-05 08:43 -31.94017 115.96966 78 ft 2 kts 197°
2026-05-05 08:43 -31.94002 115.96971 78 ft 2 kts 197°
2026-05-05 08:43 -31.93988 115.96976 78 ft 2 kts 197°
2026-05-05 08:43 -31.93974 115.96983 79 ft 2 kts 209°
2026-05-05 08:44 -31.93962 115.96993 78 ft 2 kts 222°
2026-05-05 08:44 -31.93952 115.97006 78 ft 2 kts 234°
2026-05-05 08:44 -31.93944 115.97021 78 ft 2 kts 247°
2026-05-05 08:44 -31.93940 115.97038 79 ft 2 kts 260°
2026-05-05 08:45 -31.93939 115.97055 79 ft 2 kts 272°
2026-05-05 08:45 -31.93941 115.97070 79 ft 0 kts 284°
2026-05-05 08:45 -31.93941 115.97073 79 ft 0 kts 284°
2026-05-05 08:47 -31.93940 115.97069 79 ft 2 kts 284°
2026-05-05 08:47 -31.93932 115.97025 78 ft 8 kts 280°
2026-05-05 08:47 -31.93919 115.96937 78 ft 12 kts 293°
2026-05-05 08:48 -31.93831 115.96912 76 ft 17 kts 17°
2026-05-05 08:48 -31.93704 115.96953 73 ft 19 kts 14°
2026-05-05 08:48 -31.93569 115.96993 71 ft 20 kts 14°
2026-05-05 08:48 -31.93433 115.97031 70 ft 20 kts 14°
2026-05-05 08:49 -31.93295 115.97072 69 ft 20 kts 13°
2026-05-05 08:49 -31.93161 115.97112 70 ft 19 kts 14°
2026-05-05 08:49 -31.93032 115.97150 71 ft 18 kts 13°
2026-05-05 08:49 -31.92931 115.97103 70 ft 18 kts 285°
2026-05-05 08:50 -31.92903 115.96954 66 ft 19 kts 284°
2026-05-05 08:50 -31.92897 115.96841 65 ft 10 kts 214°
2026-05-05 08:50 -31.92944 115.96822 66 ft 0 kts 193°
2026-05-05 08:50 -31.92965 115.96816 67 ft 22 kts 194°
2026-05-05 08:51 -31.93408 115.96687 69 ft 104 kts 194°
2026-05-05 08:51 -31.94299 115.96423 91 ft 152 kts 193°
2026-05-05 08:51 -31.95330 115.96072 495 ft 157 kts 195°
2026-05-05 08:51 -31.96414 115.95679 938 ft 168 kts 195°
2026-05-05 08:52 -31.97585 115.95312 1411 ft 175 kts 192°
2026-05-05 08:52 -31.98809 115.94984 1904 ft 181 kts 191°
2026-05-05 08:52 -32.00038 115.94651 2345 ft 184 kts 191°
2026-05-05 08:52 -32.01292 115.94297 2784 ft 186 kts 194°
2026-05-05 08:53 -32.02337 115.93443 3180 ft 190 kts 242°
2026-05-05 08:53 -32.02495 115.91951 3613 ft 185 kts 278°
2026-05-05 08:53 -32.02307 115.90440 4065 ft 186 kts 278°
2026-05-05 08:53 -32.02114 115.88880 4529 ft 192 kts 278°
2026-05-05 08:54 -32.01915 115.87298 4990 ft 199 kts 278°
2026-05-05 08:54 -32.01707 115.85651 5453 ft 206 kts 278°
2026-05-05 08:54 -32.01494 115.83965 5911 ft 213 kts 278°
2026-05-05 08:54 -32.01272 115.82216 6371 ft 221 kts 278°
2026-05-05 08:55 -32.00933 115.80417 6818 ft 228 kts 295°
2026-05-05 08:55 -31.99787 115.79096 7258 ft 229 kts 337°
2026-05-05 08:55 -31.98240 115.78521 7734 ft 234 kts 345°
2026-05-05 08:55 -31.96618 115.78018 8190 ft 241 kts 346°
2026-05-05 08:56 -31.94983 115.77536 8634 ft 246 kts 346°
2026-05-05 08:56 -31.93303 115.77053 9092 ft 251 kts 347°
2026-05-05 08:56 -31.91582 115.76566 9561 ft 256 kts 347°
2026-05-05 08:56 -31.89820 115.76074 10014 ft 260 kts 347°
2026-05-05 08:57 -31.88036 115.75581 10477 ft 264 kts 347°
2026-05-05 08:57 -31.86231 115.75088 10911 ft 268 kts 348°
2026-05-05 08:57 -31.84377 115.74586 11343 ft 272 kts 348°
2026-05-05 08:57 -31.82542 115.74089 11792 ft 273 kts 348°
2026-05-05 08:58 -31.80688 115.73587 12231 ft 272 kts 348°
2026-05-05 08:58 -31.78827 115.73086 12674 ft 271 kts 348°
2026-05-05 08:58 -31.77018 115.72603 13304 ft 265 kts 348°
2026-05-05 08:58 -31.75255 115.72131 14088 ft 258 kts 348°
2026-05-05 08:59 -31.73520 115.71667 14687 ft 256 kts 347°
2026-05-05 08:59 -31.71826 115.71217 15513 ft 241 kts 347°
2026-05-05 08:59 -31.70213 115.70788 16176 ft 237 kts 347°
2026-05-05 08:59 -31.68608 115.70363 16746 ft 236 kts 346°
2026-05-05 09:00 -31.67024 115.69944 17289 ft 235 kts 346°
2026-05-05 09:00 -31.65432 115.69521 17808 ft 236 kts 345°
2026-05-05 09:00 -31.63828 115.69092 18316 ft 237 kts 345°
2026-05-05 09:00 -31.62217 115.68662 18838 ft 237 kts 345°
2026-05-05 09:01 -31.60610 115.68232 19380 ft 237 kts 345°
2026-05-05 09:01 -31.58994 115.67799 19813 ft 242 kts 345°
2026-05-05 09:01 -31.57310 115.67350 20141 ft 252 kts 345°
2026-05-05 09:01 -31.55539 115.66875 20259 ft 271 kts 346°
2026-05-05 09:02 -31.53637 115.66367 20291 ft 291 kts 346°
2026-05-05 09:02 -31.51613 115.65826 20280 ft 300 kts 346°
2026-05-05 09:02 -31.49574 115.65279 20278 ft 305 kts 346°
2026-05-05 09:02 -31.47466 115.64716 20280 ft 310 kts 346°
2026-05-05 09:03 -31.45341 115.64150 20278 ft 314 kts 346°
2026-05-05 09:03 -31.43200 115.63579 20273 ft 318 kts 346°
2026-05-05 09:03 -31.41044 115.63005 20270 ft 321 kts 346°
2026-05-05 09:03 -31.38855 115.62423 20274 ft 324 kts 347°
2026-05-05 09:04 -31.36644 115.61835 20276 ft 326 kts 347°
2026-05-05 09:04 -31.34434 115.61249 20278 ft 328 kts 346°
2026-05-05 09:04 -31.32180 115.60651 20277 ft 331 kts 346°
2026-05-05 09:04 -31.29924 115.60053 20277 ft 333 kts 347°
2026-05-05 09:05 -31.27642 115.59495 20268 ft 335 kts 351°
2026-05-05 09:05 -31.25341 115.59736 20277 ft 336 kts 18°
2026-05-05 09:05 -31.23212 115.60868 20288 ft 337 kts 26°
2026-05-05 09:05 -31.21117 115.62124 20288 ft 338 kts 26°
2026-05-05 09:06 -31.19020 115.63390 20292 ft 340 kts 26°
2026-05-05 09:06 -31.16916 115.64661 20291 ft 341 kts 26°
2026-05-05 09:06 -31.14801 115.65937 20284 ft 341 kts 27°
2026-05-05 09:06 -31.12710 115.67196 20279 ft 342 kts 26°
2026-05-05 09:07 -31.10589 115.68471 20286 ft 342 kts 26°
2026-05-05 09:07 -31.08455 115.69753 20289 ft 343 kts 26°
2026-05-05 09:07 -31.06336 115.71025 20287 ft 343 kts 26°
2026-05-05 09:07 -31.04215 115.72297 20278 ft 344 kts 26°
2026-05-05 09:08 -31.02078 115.73578 20287 ft 344 kts 26°
2026-05-05 09:08 -30.99966 115.74843 20284 ft 344 kts 26°
2026-05-05 09:08 -30.97817 115.76128 20281 ft 344 kts 26°
2026-05-05 09:08 -30.95685 115.77404 20280 ft 345 kts 26°
2026-05-05 09:09 -30.93554 115.78678 20282 ft 344 kts 26°
2026-05-05 09:09 -30.91429 115.79948 20283 ft 343 kts 26°
2026-05-05 09:09 -30.89286 115.81228 20283 ft 344 kts 26°
2026-05-05 09:09 -30.87146 115.82505 20286 ft 343 kts 26°
2026-05-05 09:10 -30.85021 115.83772 20288 ft 343 kts 26°
2026-05-05 09:10 -30.82867 115.84930 20260 ft 343 kts 18°
2026-05-05 09:10 -30.81315 115.85203 20272 ft 341 kts 359°
2026-05-05 09:10 -30.78294 115.84186 20309 ft 339 kts 335°
2026-05-05 09:11 -30.76504 115.83184 20282 ft 339 kts 334°
2026-05-05 09:11 -30.74374 115.81967 20277 ft 339 kts 333°
2026-05-05 09:11 -30.72251 115.80742 20282 ft 340 kts 333°
2026-05-05 09:11 -30.70147 115.79524 20281 ft 340 kts 333°
2026-05-05 09:12 -30.68223 115.78407 20274 ft 340 kts 334°
2026-05-05 09:12 -30.66092 115.77172 20270 ft 340 kts 334°
2026-05-05 09:12 -30.64695 115.76363 20274 ft 340 kts 334°
2026-05-05 09:12 -30.61850 115.74713 20275 ft 340 kts 334°
2026-05-05 09:13 -30.59730 115.73483 20274 ft 340 kts 334°
2026-05-05 09:13 -30.58087 115.72530 20267 ft 339 kts 333°
2026-05-05 09:13 -30.55961 115.71297 20273 ft 340 kts 334°
2026-05-05 09:13 -30.53838 115.70066 20273 ft 340 kts 333°
2026-05-05 09:14 -30.51733 115.68842 20273 ft 341 kts 333°
2026-05-05 09:14 -30.49587 115.67598 20277 ft 341 kts 334°
2026-05-05 09:14 -30.47484 115.66379 20269 ft 341 kts 334°
2026-05-05 09:14 -30.45357 115.65148 20268 ft 341 kts 334°
2026-05-05 09:15 -30.43218 115.63911 20270 ft 342 kts 334°
2026-05-05 09:15 -30.41071 115.62669 20264 ft 342 kts 334°
2026-05-05 09:15 -30.38954 115.61445 20266 ft 342 kts 334°
2026-05-05 09:15 -30.36820 115.60211 20266 ft 342 kts 334°
2026-05-05 09:16 -30.34696 115.58984 20262 ft 342 kts 334°
2026-05-05 09:16 -30.32551 115.57745 20253 ft 342 kts 334°
2026-05-05 09:16 -30.30432 115.56522 20252 ft 342 kts 334°
2026-05-05 09:16 -30.28315 115.55300 20250 ft 342 kts 334°
2026-05-05 09:17 -30.26180 115.54069 20255 ft 342 kts 334°
2026-05-05 09:17 -30.24027 115.52827 20255 ft 342 kts 334°
2026-05-05 09:17 -30.21899 115.51602 20259 ft 343 kts 334°
2026-05-05 09:17 -30.19777 115.50379 20262 ft 343 kts 334°
2026-05-05 09:18 -30.17634 115.49146 20251 ft 343 kts 334°
2026-05-05 09:18 -30.15485 115.47909 20249 ft 344 kts 334°
2026-05-05 09:18 -30.13361 115.46688 20254 ft 343 kts 334°
2026-05-05 09:18 -30.11212 115.45452 20255 ft 343 kts 334°
2026-05-05 09:19 -30.09081 115.44228 20255 ft 343 kts 334°
2026-05-05 09:19 -30.06927 115.42990 20256 ft 344 kts 334°
2026-05-05 09:19 -30.04768 115.41751 20255 ft 344 kts 334°
2026-05-05 09:19 -30.02644 115.40533 20254 ft 344 kts 334°
2026-05-05 09:20 -30.00489 115.39297 20255 ft 344 kts 334°
2026-05-05 09:20 -29.98336 115.38062 20248 ft 343 kts 334°
2026-05-05 09:20 -29.96213 115.36845 20248 ft 343 kts 334°
2026-05-05 09:20 -29.94063 115.35615 20251 ft 344 kts 334°
2026-05-05 09:21 -29.91904 115.34380 20251 ft 344 kts 335°
2026-05-05 09:21 -29.89754 115.33149 20251 ft 344 kts 334°
2026-05-05 09:21 -29.87619 115.31928 20247 ft 344 kts 335°
2026-05-05 09:21 -29.85451 115.30688 20243 ft 343 kts 335°
2026-05-05 09:22 -29.83317 115.29470 20238 ft 343 kts 335°
2026-05-05 09:22 -29.81169 115.28243 20236 ft 343 kts 334°
2026-05-05 09:22 -29.79456 115.27265 20240 ft 342 kts 334°
2026-05-05 09:22 -29.77303 115.26037 20241 ft 342 kts 335°
2026-05-05 09:23 -29.75176 115.24824 20239 ft 342 kts 335°
2026-05-05 09:23 -29.73034 115.23603 20241 ft 342 kts 335°
2026-05-05 09:23 -29.70912 115.22395 20236 ft 342 kts 335°
2026-05-05 09:23 -29.68767 115.21173 20235 ft 342 kts 334°
2026-05-05 09:24 -29.66622 115.19952 20236 ft 341 kts 334°
2026-05-05 09:24 -29.64681 115.18848 20232 ft 340 kts 335°
2026-05-05 09:24 -29.63837 115.18367 20224 ft 339 kts 334°
2026-05-05 09:24 -29.62214 115.17444 20225 ft 340 kts 335°
2026-05-05 09:25 -29.61316 115.16934 20219 ft 340 kts 335°